Weather History for Cherokee, IA

Change the Weather History Date:

Tuesday, November 20, 2012

  Actual Average Record
Temperature  
Mean Temperature 44 °F -  
Max Temperature 63 °F 42 °F 63 °F (1962)
Min Temperature 25 °F 23 °F 5 °F (1950)
Degree Days  
Heating Degree Days 21    
Moisture  
Dew Point 28 °F    
Average Humidity 60    
Maximum Humidity 100    
Minimum Humidity 15    
Precipitation  
Precipitation 0.03 in - - ()
Sea Level Pressure  
Sea Level Pressure 30.13 in    
Wind  
Wind Speed 4 mph (South)    
Max Wind Speed 9 mph    
Max Gust Speed -    
Visibility 8 miles    
Events      
Averages and records for this station are not official NWS values.
T = Trace of Precipitation, MM = Missing Value Source: NWS Daily Summary

Daily Weather History Graph

Daily Weather History Graph

Search for Another Location

Airport:

Trip Planner

Search our weather history database for the weather conditions in past years. The results will help you decide how hot, cold, wet, or windy it might be!

Date:

Astronomy

Nov. 20, 2012 Rise Set
Actual Time 7:20 AM CST 4:54 PM CST
Civil Twilight 6:49 AM CST 5:25 PM CST
Nautical Twilight 6:15 AM CST 6:00 PM CST
Astronomical Twilight 5:41 AM CST 6:33 PM CST
Moon 12:50 PM CST (11/20) No Moon Set
Length of Visible Light 10h 35m
Length of Day
9h 34m
First Quarter, 51% of the Moon is Illuminated
Nov 20
First Quarter
Nov 28
Full
Dec 6
Last Quarter
Dec 13
New
Dec 19
First Quarter

Hourly Weather History & Observations

Time (CST) Temp. Windchill Dew Point Humidity Pressure Visibility Wind Dir Wind Speed Gust Speed Precip Events Conditions
12:15 AM 36.1 °F 33.5 °F 33.6 °F 91% 30.12 in 7.0 mi North 3.5 mph - N/A   Clear
12:35 AM 36.1 °F 33.5 °F 34.0 °F 92% 30.13 in 7.0 mi NNE 3.5 mph - N/A   Clear
12:55 AM 36.5 °F 32.7 °F 33.8 °F 90% 30.13 in 7.0 mi North 4.6 mph - N/A   Clear
1:15 AM 36.0 °F 32.1 °F 33.3 °F 90% 30.13 in 7.0 mi North 4.6 mph - N/A   Clear
1:35 AM 35.6 °F 32.8 °F 33.1 °F 91% 30.13 in 7.0 mi North 3.5 mph - N/A   Clear
1:55 AM 34.9 °F - 32.4 °F 91% 30.14 in 7.0 mi Calm Calm - N/A   Clear
2:15 AM 34.3 °F - 32.4 °F 92% 30.14 in 7.0 mi Calm Calm - N/A   Clear
2:35 AM 32.0 °F - 31.1 °F 96% 30.14 in 7.0 mi Calm Calm - N/A   Clear
4:35 AM 30.2 °F 26.7 °F 30.2 °F 100% 30.16 in 5.0 mi NNE 3.5 mph - N/A   Clear
6:15 AM 26.1 °F - 25.7 °F 99% 30.17 in 3.0 mi Calm Calm - N/A   Clear
6:35 AM 26.8 °F - 26.4 °F 99% 30.18 in 1.2 mi Calm Calm - N/A   Mist
6:55 AM 26.8 °F - 26.8 °F 100% 30.19 in 5.0 mi Calm Calm - N/A   Clear
7:15 AM 25.9 °F - 25.7 °F 99% 30.18 in 1.5 mi Calm Calm - N/A   Mist
7:35 AM 27.3 °F 23.4 °F 27.3 °F 100% 30.18 in 2.0 mi East 3.5 mph - N/A   Clear
7:55 AM 25.7 °F - 25.7 °F 100% 30.19 in 3.0 mi Calm Calm - N/A   Clear
8:15 AM 26.1 °F - 25.9 °F 99% 30.20 in 3.0 mi Calm Calm - N/A   Clear
8:35 AM 28.2 °F - 28.2 °F 100% 30.21 in 3.0 mi Calm Calm - N/A   Clear
8:55 AM 29.7 °F - 29.5 °F 99% 30.21 in 4.0 mi Calm Calm - N/A   Clear
9:15 AM 31.3 °F - 30.9 °F 99% 30.21 in 4.0 mi Calm Calm - N/A   Clear
9:35 AM 33.3 °F - 32.2 °F 96% 30.21 in 5.0 mi Calm Calm - N/A   Clear
9:55 AM 35.6 °F - 33.6 °F 92% 30.21 in 7.0 mi Calm Calm - N/A   Clear
10:15 AM 37.4 °F - 33.6 °F 86% 30.21 in 7.0 mi Calm Calm - N/A   Clear
10:35 AM - - - N/A% - - North - - N/A   Unknown
10:55 AM 45.3 °F - 33.3 °F 63% 30.20 in 7.0 mi Calm Calm - 0.03 in   Clear
11:15 AM 47.3 °F - 33.6 °F 59% 30.19 in 10.0 mi Calm Calm - N/A   Clear
11:35 AM 49.8 °F - 34.2 °F 55% 30.18 in 10.0 mi Calm Calm - N/A   Clear
11:55 AM 51.6 °F - 34.2 °F 51% 30.18 in 10.0 mi Calm Calm - N/A   Clear
12:15 PM 53.8 °F - 33.4 °F 46% 30.17 in 10.0 mi SW 3.5 mph - N/A   Clear
12:35 PM 55.6 °F - 31.8 °F 41% 30.17 in 10.0 mi SSW 5.8 mph - N/A   Clear
12:55 PM 57.4 °F - 29.7 °F 35% 30.16 in 10.0 mi SSW 4.6 mph - N/A   Clear
1:15 PM 58.8 °F - 28.8 °F 32% 30.15 in 10.0 mi SSW 4.6 mph - N/A   Clear
1:35 PM 60.3 °F - 27.0 °F 28% 30.14 in 10.0 mi South 5.8 mph - N/A   Clear
1:55 PM 61.0 °F - 26.1 °F 26% 30.13 in 10.0 mi South 5.8 mph - N/A   Clear
2:15 PM 62.2 °F - 22.6 °F 22% 30.12 in 10.0 mi South 6.9 mph - N/A   Clear
2:35 PM 63.0 °F - 22.1 °F 21% 30.11 in 10.0 mi South 8.1 mph - N/A   Clear
2:55 PM 63.5 °F - 18.5 °F 18% 30.11 in 10.0 mi South 6.9 mph - N/A   Clear
3:15 PM 63.5 °F - 15.8 °F 16% 30.11 in 10.0 mi SSW 6.9 mph - N/A   Clear
3:35 PM 62.6 °F - 14.5 °F 15% 30.11 in 10.0 mi SSW 9.2 mph - N/A   Clear
3:55 PM 61.3 °F - 18.1 °F 19% 30.11 in 10.0 mi South 6.9 mph - N/A   Clear
4:15 PM 60.4 °F - 20.1 °F 21% 30.11 in 10.0 mi South 5.8 mph - N/A   Clear
4:35 PM 57.7 °F - 23.0 °F 26% 30.10 in 10.0 mi SSE 6.9 mph - N/A   Clear
4:55 PM 55.8 °F - 22.8 °F 28% 30.10 in 10.0 mi SSE 5.8 mph - N/A   Clear
5:15 PM 53.6 °F - 22.6 °F 30% 30.10 in 10.0 mi South 5.8 mph - N/A   Clear
5:35 PM 52.7 °F - 22.3 °F 31% 30.10 in 10.0 mi South 8.1 mph - N/A   Clear
5:55 PM 50.9 °F - 25.0 °F 36% 30.10 in 7.0 mi South 5.8 mph - N/A   Clear
6:15 PM 50.4 °F - 26.6 °F 40% 30.10 in 10.0 mi South 5.8 mph - N/A   Clear
6:35 PM 46.2 °F 44.1 °F 27.0 °F 47% 30.11 in 10.0 mi South 4.6 mph - N/A   Clear
6:55 PM 48.9 °F - 25.5 °F 40% 30.10 in 10.0 mi SSE 9.2 mph - N/A   Clear
7:15 PM 45.7 °F 43.4 °F 25.9 °F 46% 30.11 in 10.0 mi South 4.6 mph - N/A   Clear
7:35 PM 48.6 °F - 27.5 °F 44% 30.10 in 10.0 mi South 8.1 mph - N/A   Clear
7:55 PM 47.5 °F - 28.4 °F 48% 30.10 in 10.0 mi SSE 8.1 mph - N/A   Clear
8:15 PM 46.2 °F 42.2 °F 29.1 °F 51% 30.10 in 10.0 mi South 8.1 mph - N/A   Clear
8:35 PM 46.8 °F - 29.1 °F 50% 30.09 in 10.0 mi SSE 9.2 mph - N/A   Clear
8:55 PM 45.7 °F 41.5 °F 29.3 °F 53% 30.09 in 10.0 mi South 8.1 mph - N/A   Clear
9:15 PM 45.5 °F 40.8 °F 29.1 °F 53% 30.09 in 10.0 mi SSE 9.2 mph - N/A   Clear
9:35 PM 45.3 °F 40.6 °F 29.3 °F 54% 30.09 in 10.0 mi South 9.2 mph - N/A   Clear
9:55 PM 46.4 °F 42.4 °F 29.3 °F 51% 30.08 in 10.0 mi South 8.1 mph - N/A   Clear
10:15 PM 46.0 °F 42.5 °F 29.8 °F 53% 30.09 in 10.0 mi SSE 6.9 mph - N/A   Clear
10:35 PM 46.6 °F - 30.2 °F 53% 30.08 in 10.0 mi South 9.2 mph - N/A   Clear
10:55 PM 46.8 °F - 30.6 °F 53% 30.08 in 10.0 mi South 6.9 mph - N/A   Clear
11:15 PM 47.8 °F - 30.7 °F 52% 30.07 in 10.0 mi South 8.1 mph - N/A   Clear
11:35 PM 49.5 °F - 30.9 °F 49% 30.06 in 10.0 mi South 9.2 mph - N/A   Clear
11:55 PM 49.5 °F - 31.1 °F 49% 30.06 in 10.0 mi South 8.1 mph - N/A   Clear